Location: Kunchanapalle
(16.4623°N, 80.6176°E)
Time: 14:07:42
(UTC+00:00)

Cosmos 1400 Rocket - Pass Details

Date: 13 August 2020
Orbit: 523 x 566 km, 81.2° (Epoch: 24 September)

Event Time Altitude Azimuth Distance (km) Brightness Sun altitude
Exits shadow 23:09:53 21° 196° (SSW) 1,219 4.2 -17.1°
Maximum altitude 23:12:21 69° 276° (W) 572 2.6 -16.6°
Drops below altitude 10° 23:16:13 10° 360° (N) 1,768 5.7 -15.7°
Sets 23:18:22 0° 3° (N) 2,653 6.6 -15.2°
